Temp
1 1 1 1 1 1 2 2 2 1 1 1 1 1 1 1 1 1 1 1 1 1 1 1 1 1 1 1 1 1 1 1 1 1 1 1 1 1 1 1 1 1
1 1 1 1 1 1 1 1 1 1 1 1 1 1 1 1 1 1 1 1 1 1 1 1 1 1 1 1 1 1 1 1 1 1 1 1 1 1 1 1 1 1
1 1 1 1 1 1 1 1 1 1 1 1 1 1 1 1 1 1 1 1 1 1 1 1 1 1 1 0 0 0 1 1 1 1 1 1 1 1 1 1 1 1
1 0 0 0 1 1 1 1 1 1 1 1 1 1 1 1 1 1 1 0 0 0 0 0 0 0 0 0 0 0 0 0 0 0 1 1 1 1 1 1 1 1
0 0 0 0 0 0 0 0 0 0 0 0 0 0 0 0 0 0 0 0 0 0 0 0 0 0 0 0 0 0 -0 -0 -0 0 0 0 0 0 0 0 0 0
0 0 -0 0 0 0 0 0 -0 0 0 -0 0 0 0 0 0 -0 -0 0 0 0 -0 0 0 0 -0 -0 -0 -0 -0 -0 -0 -0 -0 -0 -0 -0 0 0 0 0
0 -0 -0 0 0 0 0 -0 -0 -0 -0 -0 -0 -0 -0 -0 -0 -0 -0 -0 -0 -0 -0 -0 -0 -0 -0 -0 -0 -0 -0 -0 -0 -0 -0 -0 -0 -0 -0 -0 -0 -0
-0 -0 0 -0 0 0 0 -0 -0 -0 -0 -0 -0 -0 -0 -0 -1 -1 -1 -1 -1 -1 -1 -1 -1 -0 -0 -0 -0 -0 -0 -0 -0 -0 -0 -0 -0 -0 -0 -0 -0 -0
-0 -0 -0 -0 -0 0 -0 -0 -0 -0 -1 -0 -0 -0 -0 -0 -1 -1 -1 -1 -1 -1 -1 -1 -1 -1 -1 -1 -0 -0 -0 -0 -0 -0 -0 -0 -0 -0 -0 -0 -0 -0
0 0 -0 -1 -0 -0 -0 -0 -0 -0 -0 -1 -1 -0 -0 -0 -0 -1 -1 -1 -1 -1 -1 -1 -1 -1 -1 -1 -1 -1 -0 -0 -0 -0 -0 -0 -0 -0 -0 -0 -0 -0
1 0 -0 -0 -0 -0 -0 -0 -0 -0 -0 -0 -1 -1 -1 -1 -1 -1 -1 -1 -1 -1 -1 -1 -1 -1 -1 -1 -1 -1 -1 -0 -0 -0 -0 -0 -0 -0 -0 -0 -0 -0
0 -0 -0 -0 -0 -0 -0 -0 -0 -0 -0 -0 -1 -1 -1 -1 -1 -1 -1 -1 -1 -1 -1 -1 -1 -1 -1 -1 -1 -1 -1 -1 -0 -0 -0 -0 -0 -0 -0 -0 -1 -1
-0 -0 -0 -0 -1 -1 -0 -1 -1 -1 -1 -0 -0 -1 -1 -1 -1 -1 -1 -1 -1 -1 -1 -1 -1 -1 -1 -1 -1 -1 -1 -1 -1 -0 -0 -0 -0 -0 -0 -0 -0 -1
0 0 -0 -0 -1 -1 -1 -1 -1 -1 -1 -0 -0 -1 -1 -1 -1 -1 -1 -1 -1 -1 -1 -1 -1 -1 -1 -1 -1 -0 -1 -1 -1 -1 -0 -0 -0 -0 -0 0 -0 -0
0 0 -0 -1 -1 -1 -1 -1 -1 -1 -1 -1 -1 -1 -1 -1 -1 -1 -1 -0 -0 -1 -1 -1 -1 -1 -1 -1 -0 -0 -0 -0 -1 -1 -0 -0 -0 -0 -0 0 0 0
-0 -0 -1 -1 -1 -1 -1 -1 -1 -1 -1 -1 -1 -1 -1 -0 -1 -1 -1 -1 -0 -1 -1 -0 -0 -0 -0 -0 -0 -1 -1 -1 -1 -1 -0 -0 -0 -0 -0 -0 0 0
-1 -1 -1 -1 -1 -1 -1 -1 -1 -1 -1 -0 -0 -0 -0 -0 -0 -1 -1 -1 -1 -0 -0 -0 0 0 0 0 -0 -1 -1 -1 -1 -1 -0 -0 -0 -0 -0 -0 -0 -0
-1 -1 -1 -1 -1 -1 -1 -1 -1 -1 -1 -1 -1 -1 -1 -1 -1 -1 -1 -1 -1 -0 -0 0 0 0 0 0 -0 -0 -0 -1 -1 -1 -1 -0 -0 -0 -1 -1 -1 -0
-1 -1 -1 -1 -1 -1 -1 -1 -1 -1 -1 -1 -1 -1 -1 -1 -1 -1 -1 -1 -1 -1 -1 -1 -1 -1 -1 -1 -0 -0 -0 -1 -1 -1 -1 -1 -1 -1 -1 -1 -1 -1
-1 -1 -1 -1 -1 -1 -1 -1 -1 -1 -1 -1 -1 -1 -1 -1 -2 -2 -2 -2 -2 -2 -2 -1 -1 -1 -1 -1 -1 -1 -1 -1 -1 -1 -1 -1 -1 -1 -1 -1 -1 -1
-2 -2 -2 -2 -2 -2 -2 -2 -2 -2 -2 -2 -2 -2 -2 -2 -2 -2 -2 -2 -2 -2 -2 -2 -2 -2 -2 -2 -2 -1 -1 -1 -1 -1 -2 -2 -2 -1 -1 -1 -2 -2
-2 -2 -2 -2 -2 -2 -2 -2 -2 -2 -2 -2 -2 -2 -2 -2 -2 -2 -2 -2 -2 -2 -2 -2 -2 -2 -2 -2 -2 -2 -2 -2 -2 -2 -2 -2 -2 -2 -2 -2 -2 -2
-3 -3 -3 -3 -3 -3 -3 -3 -3 -3 -3 -3 -3 -3 -3 -3 -3 -3 -3 -3 -3 -3 -3 -3 -3 -2 -2 -2 -2 -2 -2 -2 -2 -2 -2 -2 -2 -2 -2 -2 -2 -2
-3 -3 -3 -3 -3 -3 -3 -3 -3 -3 -4 -3 -3 -3 -3 -3 -3 -3 -3 -3 -3 -3 -3 -3 -3 -3 -3 -3 -3 -3 -2 -2 -2 -2 -2 -2 -2 -2 -2 -2 -2 -2
-4 -3 -3 -3 -3 -3 -4 -4 -4 -4 -4 -4 -4 -4 -4 -4 -4 -4 -4 -4 -4 -4 -3 -3 -3 -3 -3 -3 -3 -3 -3 -3 -3 -2 -2 -2 -2 -2 -2 -2 -2 -2
-4 -4 -4 -4 -4 -4 -4 -4 -4 -4 -4 -4 -4 -4 -4 -4 -4 -4 -4 -4 -4 -4 -4 -4 -4 -3 -3 -3 -3 -3 -3 -3 -3 -3 -3 -3 -3 -3 -3 -3 -3 -3
Height
3126 3127 3128 3129 3130 3130 3131 3131 3132 3132 3132 3132 3131 3131 3130 3128 3127 3126 3126 3126 3127 3127 3127 3128 3128 3128 3128 3128 3128 3127 3127 3127 3127 3127 3126 3126 3126 3126 3126 3126 3126 3126
3124 3126 3127 3128 3128 3129 3130 3130 3131 3131 3131 3131 3131 3130 3130 3128 3127 3126 3126 3126 3127 3128 3128 3128 3128 3128 3128 3128 3128 3128 3128 3127 3127 3127 3126 3126 3126 3126 3126 3126 3126 3126
3122 3124 3125 3127 3127 3128 3128 3129 3130 3130 3130 3130 3130 3130 3129 3128 3127 3126 3126 3127 3127 3128 3128 3128 3128 3128 3128 3128 3128 3128 3128 3128 3127 3127 3127 3126 3126 3126 3126 3126 3126 3126
3120 3122 3123 3125 3126 3126 3127 3128 3129 3129 3129 3129 3129 3129 3129 3128 3127 3127 3127 3127 3128 3128 3128 3129 3129 3129 3129 3129 3129 3129 3129 3129 3128 3128 3127 3127 3127 3127 3126 3126 3126 3126
3118 3119 3122 3123 3125 3125 3125 3126 3127 3128 3128 3128 3128 3128 3128 3127 3127 3126 3127 3127 3128 3128 3129 3129 3129 3129 3129 3130 3130 3130 3130 3130 3129 3129 3129 3128 3128 3127 3127 3127 3127 3126
3116 3118 3120 3122 3123 3124 3124 3125 3126 3126 3127 3127 3127 3127 3127 3126 3126 3126 3126 3127 3128 3128 3129 3129 3129 3130 3130 3130 3130 3130 3130 3130 3130 3130 3129 3129 3129 3128 3128 3127 3127 3127
3114 3117 3119 3120 3121 3123 3123 3123 3124 3125 3125 3126 3126 3126 3126 3126 3125 3125 3126 3126 3127 3127 3128 3129 3129 3129 3130 3130 3130 3130 3130 3130 3130 3130 3129 3129 3129 3129 3128 3128 3128 3127
3112 3114 3115 3117 3119 3120 3121 3121 3122 3123 3123 3124 3124 3124 3125 3125 3124 3124 3125 3125 3126 3126 3127 3127 3128 3129 3129 3129 3129 3130 3130 3130 3130 3129 3129 3129 3129 3128 3128 3128 3128 3127
3110 3111 3113 3115 3116 3117 3118 3119 3120 3121 3121 3122 3122 3122 3123 3123 3123 3123 3123 3124 3124 3125 3125 3126 3126 3127 3127 3128 3128 3128 3129 3129 3129 3128 3128 3128 3128 3127 3127 3127 3127 3127
3107 3108 3110 3112 3113 3115 3116 3117 3118 3119 3119 3119 3120 3120 3120 3121 3121 3122 3122 3122 3123 3123 3123 3124 3125 3125 3125 3126 3126 3126 3127 3127 3127 3127 3127 3127 3126 3126 3126 3126 3126 3125
3106 3106 3108 3109 3112 3114 3115 3115 3116 3117 3117 3118 3119 3119 3119 3119 3119 3120 3120 3120 3121 3121 3120 3121 3122 3123 3123 3124 3124 3125 3125 3125 3125 3125 3125 3125 3125 3125 3124 3124 3124 3124
3106 3107 3108 3109 3111 3113 3114 3114 3115 3115 3115 3116 3116 3116 3116 3116 3117 3117 3117 3118 3118 3118 3118 3117 3118 3119 3121 3122 3122 3123 3123 3123 3123 3123 3123 3123 3123 3123 3123 3122 3122 3122
3105 3106 3107 3108 3110 3111 3112 3112 3113 3112 3113 3113 3113 3113 3114 3115 3115 3115 3115 3115 3116 3116 3116 3115 3114 3115 3117 3119 3119 3120 3121 3121 3121 3120 3121 3121 3121 3121 3121 3120 3120 3120
3104 3105 3105 3106 3108 3109 3110 3110 3110 3110 3111 3111 3110 3111 3111 3112 3113 3113 3112 3113 3114 3114 3114 3113 3112 3113 3114 3116 3116 3117 3118 3118 3118 3118 3118 3118 3118 3118 3118 3118 3118 3118
3104 3104 3105 3106 3106 3107 3108 3108 3108 3108 3108 3107 3107 3108 3108 3109 3110 3110 3111 3111 3112 3112 3112 3111 3111 3111 3112 3113 3113 3113 3114 3114 3115 3115 3115 3115 3115 3116 3116 3115 3115 3115
3102 3102 3103 3104 3104 3104 3104 3104 3104 3104 3104 3104 3104 3105 3106 3108 3108 3109 3110 3111 3110 3110 3109 3109 3109 3110 3110 3110 3110 3110 3110 3110 3111 3112 3112 3112 3113 3113 3113 3113 3112 3112
3099 3099 3100 3101 3102 3102 3102 3102 3102 3102 3102 3102 3103 3103 3104 3105 3105 3106 3107 3108 3107 3107 3106 3107 3107 3108 3108 3107 3107 3108 3108 3108 3109 3109 3109 3110 3110 3110 3110 3110 3109 3109
3097 3098 3099 3100 3100 3101 3101 3101 3101 3100 3100 3100 3100 3101 3101 3102 3102 3103 3103 3103 3103 3104 3104 3105 3105 3106 3105 3104 3104 3106 3106 3106 3106 3106 3107 3107 3107 3107 3107 3107 3106 3106
3096 3096 3097 3097 3098 3098 3099 3099 3098 3098 3098 3098 3098 3098 3098 3099 3100 3100 3101 3101 3101 3101 3101 3102 3102 3102 3102 3101 3101 3102 3102 3102 3102 3103 3103 3104 3104 3104 3103 3103 3102 3102
3094 3094 3095 3095 3095 3096 3096 3096 3096 3096 3096 3096 3096 3096 3097 3097 3098 3098 3099 3099 3098 3098 3098 3098 3099 3099 3098 3098 3098 3098 3098 3098 3098 3098 3099 3099 3100 3099 3099 3098 3098 3098
3091 3092 3092 3092 3092 3093 3093 3093 3093 3093 3093 3093 3094 3094 3094 3095 3095 3096 3096 3096 3096 3096 3095 3095 3095 3095 3095 3095 3095 3094 3094 3094 3094 3094 3094 3095 3095 3095 3095 3094 3094 3094
3088 3088 3089 3089 3089 3089 3089 3089 3090 3090 3090 3090 3091 3091 3092 3092 3092 3093 3093 3093 3093 3092 3092 3092 3092 3092 3092 3092 3092 3091 3091 3091 3091 3091 3091 3091 3091 3091 3091 3091 3091 3091
3085 3085 3086 3086 3086 3086 3086 3086 3086 3087 3087 3088 3088 3089 3089 3089 3090 3090 3090 3089 3089 3089 3089 3089 3089 3089 3089 3089 3089 3088 3088 3088 3088 3088 3088 3088 3087 3087 3087 3087 3087 3087
3082 3083 3083 3083 3084 3084 3084 3084 3084 3084 3084 3085 3085 3086 3086 3086 3086 3086 3086 3086 3086 3086 3086 3086 3086 3086 3086 3086 3085 3085 3085 3085 3085 3085 3085 3085 3084 3084 3084 3084 3084 3083
3079 3080 3080 3080 3080 3080 3080 3081 3081 3082 3082 3082 3083 3083 3083 3083 3083 3083 3083 3083 3083 3083 3083 3083 3083 3083 3082 3082 3082 3082 3082 3082 3082 3082 3082 3082 3081 3081 3081 3080 3080 3079
3076 3076 3076 3076 3077 3077 3077 3078 3078 3079 3079 3079 3079 3080 3080 3080 3080 3080 3080 3080 3080 3080 3080 3080 3080 3080 3079 3079 3079 3078 3078 3078 3078 3078 3078 3078 3078 3078 3077 3077 3076 3075
Wind_Speed
10 10 9 7 7 6 5 4 5 6 5 5 4 3 3 4 4 4 5 5 5 5 5 4 3 3 2 2 1 2 2 3 3 3 4 3 3 3 4 5 5 5
13 12 12 11 10 8 7 6 7 6 5 5 5 3 3 3 4 4 5 5 5 5 4 4 4 4 4 3 3 2 1 1 1 1 1 1 2 2 2 2 3 3
16 15 15 14 13 11 9 8 8 8 6 5 5 4 4 3 3 4 4 4 4 4 4 4 4 4 4 4 4 4 3 2 1 1 1 0 0 1 1 1 1 1
20 18 17 16 15 13 11 10 10 9 7 6 6 5 5 4 3 3 3 3 3 3 4 4 5 4 4 3 3 4 3 3 2 2 2 2 2 2 1 1 1 1
23 21 19 19 18 16 14 12 11 10 9 8 8 6 6 6 5 4 4 4 4 4 4 4 5 5 5 5 4 4 4 3 3 2 2 2 3 3 3 2 2 2
24 21 21 21 21 19 16 14 13 12 12 11 10 9 8 7 6 5 5 6 6 6 7 7 6 6 7 7 7 7 6 6 5 4 3 2 2 2 2 2 2 2
25 22 23 25 23 21 19 18 16 16 16 15 14 13 11 10 9 8 6 6 6 7 8 8 8 7 7 8 9 9 10 9 8 7 6 4 3 3 3 2 2 3
25 26 27 27 25 24 23 23 20 19 19 19 17 16 15 13 13 12 10 9 8 8 8 6 7 7 7 8 9 10 11 11 11 10 9 8 7 6 6 5 5 5
26 29 28 27 27 27 27 25 22 21 22 22 21 21 19 18 17 16 14 12 10 10 10 9 9 9 9 9 11 11 12 12 12 11 11 11 11 11 10 9 9 9
23 28 29 28 29 30 29 27 25 25 26 26 25 24 23 21 20 18 15 14 13 11 11 12 13 14 12 11 12 14 14 15 14 13 13 13 13 13 13 13 13 13
21 25 28 28 29 31 31 30 29 30 30 26 23 23 25 24 22 19 17 17 16 14 13 13 15 16 17 15 14 15 15 16 16 16 16 15 14 14 14 14 14 14
19 23 26 28 29 30 31 31 31 31 29 24 20 18 20 22 22 21 20 20 19 17 16 16 16 17 19 19 17 16 16 17 18 18 18 18 17 17 16 16 15 15
19 21 24 27 29 30 31 32 30 29 26 22 20 17 17 19 20 20 20 21 21 21 21 19 17 17 19 21 20 19 19 19 18 19 19 19 19 20 20 19 18 17
20 22 23 24 25 27 29 29 28 25 24 23 21 19 19 20 20 20 20 20 21 21 20 19 16 15 17 20 21 22 23 22 21 21 20 20 20 20 21 22 22 21
19 21 22 20 19 21 24 25 24 22 21 22 20 18 18 19 19 20 20 18 18 18 18 16 14 13 14 16 18 21 25 27 27 24 22 22 21 20 21 22 23 23
15 15 15 14 14 16 16 16 16 14 14 15 14 14 15 16 16 17 16 15 15 15 15 13 13 14 14 16 18 20 22 26 27 25 23 22 22 22 22 22 23 24
12 11 12 12 13 12 12 13 13 12 12 13 13 14 15 15 15 15 14 14 14 14 14 14 15 15 17 19 20 20 20 23 25 25 25 25 24 24 24 24 25 25
13 14 14 15 15 15 15 16 16 16 16 16 17 17 17 17 17 17 17 17 17 17 18 18 18 18 20 22 22 21 21 24 25 25 26 26 26 26 26 27 27 28
18 18 19 19 19 19 20 19 19 19 19 19 19 19 19 19 19 19 20 20 20 21 22 21 21 22 23 25 26 25 25 26 27 27 26 27 28 28 28 29 30 30
20 21 21 21 21 21 21 22 22 22 22 21 21 21 21 21 21 21 22 22 22 23 23 24 24 25 26 28 28 29 29 29 30 30 29 30 30 31 31 33 33 33
19 20 21 21 22 21 22 22 22 22 23 23 22 22 22 21 21 21 22 22 23 23 24 24 25 26 27 28 29 30 30 31 31 31 31 31 31 32 32 33 34 34
19 20 20 20 20 20 21 21 22 22 22 22 22 22 22 22 22 22 22 22 23 23 23 23 24 25 26 26 27 29 30 31 31 31 31 31 31 32 32 32 32 32
21 22 21 21 20 21 21 21 22 22 22 21 21 21 21 22 22 23 23 23 23 24 24 23 23 24 25 25 26 27 29 30 30 30 30 30 30 30 30 30 30 30
22 23 24 24 24 24 24 24 24 23 22 21 21 21 22 22 23 24 24 24 24 24 25 25 24 24 25 25 26 27 28 29 30 30 29 29 28 28 28 28 28 28
22 24 26 28 28 28 28 27 26 25 24 23 23 22 23 23 24 25 25 25 26 26 26 27 27 26 26 26 26 26 27 27 28 28 28 28 28 28 28 28 28 29
25 27 29 31 32 31 30 29 28 27 26 25 24 23 24 24 25 25 25 26 26 26 27 28 29 29 29 29 28 28 28 27 27 27 27 27 27 27 28 28 29 30
Wind_Direction
218 218 222 232 232 246 272 286 295 299 312 328 348 26 48 62 64 65 65 64 67 66 68 66 65 71 74 92 123 154 171 179 193 204 215 222 220 220 215 215 220 223
217 215 221 228 230 242 260 265 272 274 280 301 316 344 13 39 50 53 53 49 46 45 46 50 51 51 47 43 44 46 68 116 146 164 178 196 198 197 204 210 214 218
216 216 223 228 233 237 241 247 254 253 255 271 289 307 326 350 18 31 35 34 29 20 15 17 21 28 30 26 26 23 15 13 2 325 304 241 167 136 151 169 182 194
214 218 224 226 230 227 224 230 237 243 245 249 264 284 298 308 324 338 348 352 348 347 346 348 350 353 357 358 5 10 9 2 347 324 307 303 310 311 300 298 299 298
219 226 229 227 227 222 217 221 228 234 235 238 250 264 269 275 282 289 299 298 296 296 296 307 313 315 321 323 326 332 337 337 337 338 322 315 316 307 299 299 296 289
227 230 228 226 227 222 215 218 224 225 228 233 241 247 250 257 263 266 276 284 286 283 279 278 279 283 290 296 302 306 305 307 310 313 313 306 304 296 289 288 286 277
234 229 225 225 228 224 216 218 220 218 221 226 227 233 240 245 250 252 256 263 271 275 272 270 272 275 278 281 285 285 284 285 288 289 288 279 266 258 256 259 262 269
231 224 221 223 227 225 220 221 221 215 218 225 226 228 232 234 237 238 239 243 249 253 250 249 262 274 281 282 281 277 275 275 275 276 275 274 270 262 255 256 254 258
230 225 225 225 226 225 223 226 226 219 220 226 229 230 233 233 233 230 227 230 239 243 240 239 247 255 265 277 280 276 272 270 269 268 267 267 266 264 262 261 260 262
235 232 233 233 229 227 228 231 233 230 228 229 231 236 241 240 237 236 235 237 243 246 244 246 252 253 256 265 270 268 267 266 265 265 264 263 261 260 261 262 264 266
239 237 236 236 231 231 234 238 241 244 246 247 247 252 256 250 244 246 250 252 256 256 249 245 250 255 258 261 261 258 257 259 261 261 259 257 257 255 254 257 262 265
240 241 240 239 235 235 240 243 246 251 255 256 253 256 260 254 248 249 252 255 262 267 262 252 248 250 253 254 254 253 253 254 256 254 250 248 248 249 249 250 254 258
234 236 237 238 237 237 242 246 250 252 250 247 247 255 263 259 253 252 252 253 259 267 268 262 252 249 249 249 249 249 251 253 251 247 245 244 243 244 246 248 248 250
228 227 227 231 234 237 241 244 245 246 243 242 250 262 266 261 256 255 256 258 262 265 266 264 259 255 253 252 252 253 253 253 249 242 241 243 244 243 244 246 247 248
225 224 224 226 228 233 239 239 238 239 240 244 251 256 256 253 252 254 256 258 260 258 258 261 263 260 259 259 260 260 259 257 252 244 241 245 248 247 245 245 246 248
221 224 223 222 224 230 240 245 247 249 249 250 253 252 251 250 250 253 253 252 254 257 260 264 265 263 263 261 260 260 259 254 248 245 246 251 254 254 253 252 253 254
216 221 221 225 230 234 242 249 252 254 252 253 255 256 258 258 258 260 262 263 267 271 272 271 269 267 265 263 260 260 257 250 244 245 251 256 258 260 261 262 263 263
218 222 225 229 232 234 238 243 247 251 253 255 258 261 264 265 266 267 269 269 270 269 268 266 267 267 266 264 263 261 257 252 250 252 256 258 261 263 264 265 265 265
224 225 227 229 231 233 235 239 243 247 250 253 255 258 260 262 264 265 266 268 268 266 266 264 263 262 262 263 263 260 257 256 256 257 257 257 258 260 261 261 262 262
235 233 233 234 234 235 236 238 240 243 246 249 251 253 255 257 259 260 262 264 265 265 265 264 263 261 261 261 261 261 259 259 259 259 259 259 258 258 259 259 259 260
250 245 243 242 241 241 242 243 244 245 247 249 251 253 255 256 257 257 258 259 260 260 261 261 261 261 260 260 261 261 261 261 261 262 263 263 263 262 261 261 261 262
262 254 250 247 245 245 245 246 248 248 250 251 252 254 256 258 259 260 260 260 260 260 260 260 260 260 261 261 261 261 261 261 262 263 264 265 266 266 266 266 266 266
263 258 251 246 244 243 242 244 246 248 250 252 254 256 257 259 261 261 261 261 262 262 263 262 261 261 261 261 261 261 261 262 263 264 265 267 268 268 268 268 268 269
264 261 256 250 245 242 241 242 244 246 248 251 253 255 256 257 259 259 260 260 260 261 263 263 263 262 261 261 261 261 262 263 265 266 267 269 270 271 270 270 269 269
266 268 266 261 253 247 244 243 244 246 247 249 252 254 256 257 258 257 257 258 258 259 260 260 261 261 261 262 262 263 264 265 266 267 268 269 269 270 270 270 270 270
267 268 268 264 258 253 249 248 248 249 251 253 256 259 261 261 261 261 260 259 259 259 259 259 260 260 261 262 263 264 265 266 266 268 270 270 269 269 269 270 270 271